STARLINK-1702 (46551 NORAD) Tracking and Keplerian Element Data

This shows tracking and keplerian element data for the satellite.

Feedback or suggestion? Click here.




ElementValue
Catalog46551
NameSTARLINK-1702
Epoch Orbit459
Epoch Day304.53926342
Epoch Year2020
RAAN323.6445
Inclination52.9892
Eccentricity0.0001187
Argument of Perigee2.0045
Mean Anonmoly358.0974
Mean Motion15.66174137
Decay Rate0.00019551
L11 46551U 20070V 20304.53926342 .00019551 00000-0 19132-3 0 9993
L22 46551 52.9892 323.6445 0001187 2.0045 358.0974 15.66174137 4598

Live tracking and technical data element details for STARLINK-1702 (NORAD 46551). STARLINK-1702 can be tracked NOW for your location showing map with azimuth and elevation plus other details from your city location.

Track the satellite on the map from your city or location and see movement details for azimuth, elevation, latitude, longitude, range, height, and movement on the map or in text.







IsCatalogInMostPopularTable: catalog: 46551, numindb: 3
Update: records affected: 1



GetName: 46551 STARLINK-1702

Hit Count: updated at: Sat, 31 Oct 2020 08:22:57 GMT